Location: *
(48.8489°N, 2.3218°E)
Time: 21:41:15
(UTC+00:00)

ARGOS - Pass Details

Date: 23 August 2019
Orbit: 820 x 835 km, 98.5° (Epoch: 17 September)

Event Time Altitude Azimuth Distance (km) Brightness Sun altitude
Exits shadow 20:32:46 - 187° (S) 3,253 5.9 -15.4°
Reaches altitude 10° 20:35:01 10° 195° (SSW) 2,414 5.3 -15.7°
Maximum altitude 20:39:59 38° 263° (W) 1,228 4.4 -16.3°
Drops below altitude 10° 20:44:59 10° 332° (NNW) 2,428 6.7 -17.0°
Sets 20:47:31 0° 340° (NNW) 3,365 7.4 -17.3°
